星链-4660 (STARLINK-4660 )

导读

STARLINK-4660(星链-4660)是美国太空探索技术公司Starlink(星链)星座中的卫星,于2022年8月28日发射升空,作为星链互联网星座的组成部分,它主要承担为全球提供低延迟、高速宽带互联网服务的任务,尤其能为偏远地区、网络基础设施薄弱区域提供网络覆盖,进一步扩充了星链星座的服务能力与覆盖范围。

Basic Information
目录编号:
53609
目录名称:
STARLINK-4660
国际标识:
2022-104X
轨道中心:
EARTH
卫星名称:
星链-4660
卫星全名:
星链-4660 (STARLINK-4660 )
卫星状态:
在轨 (已飞行1389 天)
发射日期:
2022-08-28 UTC
国别 :
美国 (US)
星等 :
--
Orbit Information
数据来源 国际轨道数据 AOE轨道数据
星历时间 2026-06-17T12:00:02+0800
6小时前
查看轨道信息
2026-06-13T00:00:00+0800
4天前
查看轨道信息
半长轴 6899.06km 6917.862km
偏心率 0.0002326 0.0001324
轨道倾角 53.160° 53.159°
近地点辐角 75.785° 73.460°
升交点赤经 152.078° 172.385°
平近点角 84.612° 69.688°
近地点 519.318km 538.809km
远地点 522.528km 540.641km
周期 95.048分钟 95.437分钟
每日圈数 15.150185 15.088462
Detailed Information
固有亮度:
5
最大亮度:
2.5
卫星平台:
Starlink v1.5
覆盖范围:
全球
运营商:
太空探索技术公司
运营商所在国:
美国
制造商(研发单位):
太空探索技术公司
制造商所在国:
美国
使用方式:
暂无
Satellite Introduction
星链(Starlink)计划是由太空探索技术公司(SpaceX)提出的一个巨型低轨卫星互联网星座项目,计划在2019年至2024年间在太空搭建由约1.2万颗卫星组成的“星链”网络,其中1584颗将部署在地球上空550千米处的近地轨道,并从2020年开始工作。该卫星仍在工作。
2D Orbit Map
3D Orbit Map
Orbit Altitude Analysis Chart
Orbit Inclination Analysis Chart
Orbit Comprehensive Analysis Chart
View Comprehensive Chart